Location: Newark
(45.9456°N, 15.4064°E)
Time: 03:19:47
(UTC+00:00)

SR - Pass Details

Date: 29 January 2020
Orbit: 575 x 881 km, 66.7° (Epoch: 16 February)

Event Time Altitude Azimuth Distance (km) Brightness Sun altitude
Rises 19:01:21 0° 175° (S) 3,396 - -31.8°
Reaches altitude 10° 19:04:08 10° 163° (SSE) 2,494 - -32.2°
Maximum altitude 19:08:52 27° 108° (ESE) 1,642 - -33.1°
Drops below altitude 10° 19:13:42 10° 54° (NE) 2,543 - -33.9°
Sets 19:16:33 0° 42° (NE) 3,475 - -34.4°
